DW6368 Weather Reports


Display with metric or nautical units.
time (UTC)temp
F
wind
direction
speed
MPH
gust
MPH
rain 1hr
in
rain 24hr
in
rain mn
in
humidity
%
barometer
mb
20260901231302 87 217 3.0 9.0 0.00 0.00 0.00 52 1012.4
20260901230303 87 185 2.0 6.0 0.00 0.00 0.00 49 1012.3
20260901225306 87 166 2.0 6.0 0.00 0.00 0.00 48 1012.4
20260901224324 86 183 1.0 6.0 0.00 0.00 0.00 48 1012.6
20260901223302 85 222 2.0 9.0 0.00 0.00 0.00 46 1012.8
20260901222306 84 219 3.0 6.0 0.00 0.00 0.00 53 1012.7
20260901221303 84 236 4.0 10.0 0.00 0.00 0.00 53 1012.9
20260901220303 84 226 2.0 7.0 0.00 0.00 0.00 55 1013.0
20260901215306 83 200 2.0 8.0 0.00 0.00 0.00 57 1013.2
20260901214302 83 225 3.0 9.0 0.00 0.00 0.00 60 1013.2
20260901213324 82 208 2.0 10.0 0.00 0.00 0.00 62 1013.4
20260901212305 83 230 4.0 9.0 0.00 0.00 0.00 61 1013.4
20260901211303 83 223 2.0 7.0 0.00 0.00 0.00 61 1013.5
20260901210323 82 224 3.0 10.0 0.00 0.00 0.00 62 1013.5
20260901205306 82 226 3.0 12.0 0.00 0.00 0.00 59 1013.6
20260901204324 82 232 4.0 6.0 0.00 0.00 0.00 61 1013.7
20260901203303 82 191 2.0 8.0 0.00 0.00 0.00 60 1013.7
20260901202306 82 224 3.0 9.0 0.00 0.00 0.00 63 1013.9
20260901201302 82 216 2.0 7.0 0.00 0.00 0.00 63 1014.0
20260901200303 82 222 3.0 7.0 0.00 0.00 0.00 65 1014.1
20260901195305 81 194 1.0 7.0 0.00 0.00 0.00 67 1014.2
20260901194303 81 247 3.0 7.0 0.00 0.00 0.00 67 1014.2
20260901193324 81 215 2.0 7.0 0.00 0.00 0.00 67 1014.3
20260901192324 81 206 2.0 7.0 0.00 0.00 0.00 68 1014.4
20260901191303 80 214 2.0 7.0 0.00 0.00 0.00 70 1014.5
20260901190302 80 234 3.0 7.0 0.00 0.00 0.00 69 1014.6
20260901185324 79 200 1.0 10.0 0.00 0.00 0.00 70 1014.7
20260901184303 80 237 2.0 5.0 0.00 0.00 0.00 69 1014.7
20260901183302 80 209 2.0 7.0 0.00 0.00 0.00 71 1014.7
20260901182305 79 241 2.0 9.0 0.00 0.00 0.00 71 1014.6
20260901181303 79 229 2.0 7.0 0.00 0.00 0.00 71 1014.7
20260901180303 79 222 2.0 6.0 0.00 0.00 0.00 71 1014.6
20260901175305 78 224 1.0 6.0 0.00 0.00 0.00 73 1014.6
20260901174303 77 224 2.0 6.0 0.00 0.00 0.00 73 1014.6
20260901173303 77 24 1.0 5.0 0.00 0.00 0.00 70 1014.7
20260901172323 76 254 2.0 5.0 0.00 0.00 0.00 72 1014.5
20260901171303 76 238 1.0 6.0 0.00 0.00 0.00 74 1014.6
20260901170324 76 292 2.0 5.0 0.00 0.00 0.00 73 1014.5
20260901165306 77 308 3.0 5.0 0.00 0.00 0.00 71 1014.4
20260901164303 77 193 1.0 3.0 0.00 0.00 0.00 73 1014.4
20260901163302 76 159 1.0 3.0 0.00 0.00 0.00 74 1014.4
20260901162306 75 92 0.0 2.0 0.00 0.00 0.00 74 1014.4
20260901161302 75 97 1.0 3.0 0.00 0.00 0.00 76 1014.4
20260901160345 74 257 1.0 3.0 0.00 0.00 0.00 77 1014.5
20260901155324 73 223 0.0 3.0 0.00 0.00 0.00 80 1014.5
20260901154302 73 175 1.0 3.0 0.00 0.00 0.00 81 1014.5
20260901153324 71 170 0.0 2.0 0.00 0.00 0.00 84 1014.3
20260901152305 70 79 1.0 3.0 0.00 0.00 0.00 88 1014.2
20260901151303 68 120 2.0 5.0 0.00 0.00 0.00 92 1014.3
20260901150302 66 124 1.0 3.0 0.00 0.00 0.00 95 1014.2
20260901145306 66 210 1.0 3.0 0.00 0.00 0.00 97 1014.0
20260901144302 65 355 1.0 1.0 0.00 0.00 0.00 96 1013.9
20260901143345 65 1 1.0 2.0 0.00 0.00 0.00 97 1014.0
20260901142305 65 123 0.0 2.0 0.00 0.00 0.00 98 1013.9
20260901141302 65 142 1.0 2.0 0.00 0.00 0.00 98 1013.9
20260901140303 64 12 0.0 1.0 0.00 0.00 0.00 98 1013.8
20260901135323 64 25 0.0 1.0 0.00 0.00 0.00 98 1013.6
20260901134303 64 178 0.0 1.0 0.00 0.00 0.00 98 1013.5
20260901133303 64 41 0.0 1.0 0.00 0.00 0.00 98 1013.5
20260901131303 64 9 0.0 0.0 0.00 0.00 0.00 98 1013.3
20260901130303 64 37 0.0 1.0 0.00 0.00 0.00 98 1013.3
20260901124303 64 319 0.0 1.0 0.00 0.00 0.00 99 1013.3
20260901123303 63 9 0.0 1.0 0.00 0.00 0.00 98 1013.3
20260901121302 63 308 0.0 1.0 0.00 0.00 0.00 98 1012.8
20260901120303 63 285 0.0 1.0 0.00 0.00 0.00 97 1012.9
20260901115306 63 309 0.0 1.0 0.00 0.00 0.00 97 1012.8
20260901114303 63 13 0.0 1.0 0.00 0.00 0.00 98 1012.8
20260901113302 63 9 0.0 1.0 0.00 0.00 0.00 98 1012.8
20260901111303 62 2 0.0 1.0 0.00 0.00 0.00 98 1013.0
20260901110303 62 93 0.0 1.0 0.00 0.00 0.00 97 1013.1
20260901104303 62 51 0.0 1.0 0.00 0.00 0.00 96 1013.2
20260901103303 62 9 0.0 1.0 0.00 0.00 0.00 96 1013.2
20260901101303 63 42 0.0 1.0 0.00 0.00 0.00 96 1013.1
20260901100302 63 0 0.0 1.0 0.00 0.00 0.00 96 1013.2
20260901094303 63 51 0.0 1.0 0.00 0.00 0.00 96 1013.2
20260901093303 64 9 0.0 1.0 0.00 0.00 0.00 96 1013.3
20260901091302 64 9 0.0 1.0 0.00 0.00 0.00 96 1013.1
20260901090303 64 51 0.0 1.0 0.00 0.00 0.00 96 1013.1
20260901084303 64 22 0.0 1.0 0.00 0.00 0.00 96 1013.2
20260901083303 64 9 0.0 0.0 0.00 0.00 0.00 95 1013.3
20260901081303 64 51 0.0 0.0 0.00 0.00 0.00 95 1013.4
20260901080303 64 9 0.0 1.0 0.00 0.00 0.00 95 1013.3
20260901074303 65 51 0.0 1.0 0.00 0.00 0.00 94 1013.4
20260901073303 65 51 0.0 1.0 0.00 0.00 0.00 94 1013.4
20260901071303 65 29 0.0 1.0 0.00 0.00 0.00 93 1013.3
20260901070303 65 51 0.0 1.0 0.00 0.00 0.00 93 1013.3
20260901064303 66 220 0.0 1.0 0.00 0.00 0.00 92 1013.2
20260901063303 66 51 0.0 1.0 0.00 0.00 0.00 92 1012.9
20260901061303 66 40 0.0 1.0 0.00 0.00 0.00 91 1012.9
20260901060303 66 9 0.0 1.0 0.00 0.00 0.00 91 1012.8
20260901054324 67 324 0.0 1.0 0.00 0.00 0.00 90 1012.8
20260901053302 67 39 0.0 1.0 0.00 0.00 0.00 89 1012.8
20260901051303 68 36 0.0 1.0 0.00 0.00 0.00 88 1012.6
20260901050304 68 308 0.0 2.0 0.00 0.00 0.00 87 1012.6
20260901044302 69 315 0.0 2.0 0.00 0.00 0.00 86 1012.6
20260901043303 69 51 0.0 1.0 0.00 0.00 0.00 85 1012.5
20260901041303 70 318 1.0 3.0 0.00 0.00 0.00 85 1012.3
20260901040302 70 310 1.0 3.0 0.00 0.00 0.00 84 1012.1
20260901034303 70 301 2.0 5.0 0.00 0.00 0.00 84 1011.8
20260901033302 71 304 2.0 4.0 0.00 0.00 0.00 83 1011.6
20260901031303 71 307 3.0 5.0 0.00 0.00 0.00 82 1011.5
20260901030302 71 294 1.0 5.0 0.00 0.00 0.00 81 1011.3
20260901024303 72 319 1.0 6.0 0.00 0.00 0.00 80 1011.1
20260901023303 73 298 1.0 5.0 0.00 0.00 0.00 78 1011.1
20260901021302 75 306 3.0 8.0 0.00 0.00 0.00 74 1011.1
20260901020303 76 293 3.0 10.0 0.00 0.00 0.00 72 1011.1
20260901014303 78 324 2.0 8.0 0.00 0.00 0.00 70 1010.8
20260901013303 79 313 4.0 10.0 0.00 0.00 0.00 68 1010.9
20260901011302 82 255 2.0 5.0 0.00 0.00 0.00 66 1010.7
20260901010303 81 238 2.0 5.0 0.00 0.00 0.00 68 1010.7
20260901004303 80 215 2.0 9.0 0.00 0.00 0.00 66 1010.8
20260901003303 81 216 2.0 9.0 0.00 0.00 0.00 66 1011.0
20260901001303 80 222 4.0 7.0 0.00 0.00 0.00 70 1011.1
20260901000303 80 238 4.0 13.0 0.00 0.00 0.00 71 1011.4
20260831234303 81 242 4.0 13.0 0.00 0.00 0.00 69 1011.3
20260831233302 82 222 4.0 12.0 0.00 0.00 0.00 69 1011.4